Weather History for Juan Santamaria, Costa Rica

Change the Weather History Date:

Saturday, March 23, 2013

  Actual Average Record
Temperature  
Mean Temperature 76 °F -  
Max Temperature 89 °F 83 °F - ()
Min Temperature 63 °F 65 °F - ()
Cooling Degree Days 11    
Growing Degree Days 26 (Base 50)    
Moisture  
Dew Point 65 °F    
Average Humidity 73    
Maximum Humidity 100    
Minimum Humidity 35    
Precipitation  
Precipitation 0.00 in 0.08 in - ()
Sea Level Pressure  
Sea Level Pressure 29.98 in    
Wind  
Wind Speed 5 mph ()    
Max Wind Speed 15 mph    
Max Gust Speed -    
Visibility 7.0 miles    
Events      
T = Trace of Precipitation, MM = Missing Value Source: Averaged Metar Reports

Daily Weather History Graph

Daily Weather History Graph

Search for Another Location

Airport:

Trip Planner

Search our weather history database for the weather conditions in past years. The results will help you decide how hot, cold, wet, or windy it might be!

Date:

Astronomy

Mar. 23, 2013 Rise Set
Actual Time 5:39 AM CST 5:47 PM CST
Civil Twilight 5:18 AM CST 6:08 PM CST
Nautical Twilight 4:53 AM CST 6:32 PM CST
Astronomical Twilight 4:29 AM CST 6:57 PM CST
Moon 2:46 PM CST (3/23) 2:37 AM CST (3/23)
Length of Visible Light 12h 50m
Length of Day
12h 08m
Waxing Gibbous, 85% of the Moon is Illuminated
Mar 23
Waxing Gibbous
Mar 27
Full
Apr 2
Last Quarter
Apr 10
New
Apr 18
First Quarter

Hourly Weather History & Observations

Time (CST) Temp. Heat Index Dew Point Humidity Pressure Visibility Wind Dir Wind Speed Gust Speed Precip Events Conditions
12:00 AM 69.8 °F - 69.8 °F 100% 30.05 in 6.2 mi NNW 2.3 mph - N/A   Partly Cloudy
1:00 AM 68.0 °F - 64.4 °F 88% 30.03 in 6.2 mi East 4.6 mph - N/A   Partly Cloudy
2:00 AM 66.2 °F - 62.6 °F 88% 30.01 in 6.2 mi ESE 3.5 mph - N/A   Partly Cloudy
3:00 AM 66 °F - 61 °F 78% 29.83 in 12 mi East 5.8 mph - -   Scattered Clouds
3:00 AM 66.2 °F - 60.8 °F 83% 30.01 in 6.2 mi East 5.8 mph - N/A   Partly Cloudy
4:00 AM 64.4 °F - 59.0 °F 83% 30.01 in 6.2 mi East 6.9 mph - N/A   Partly Cloudy
5:00 AM 64.4 °F - 59.0 °F 83% 30.02 in 6.2 mi East 8.1 mph - N/A   Partly Cloudy
6:00 AM 62.6 °F - 57.2 °F 82% 30.04 in - East 5.8 mph - N/A   Clear
7:00 AM 66.2 °F - 57.2 °F 73% 30.05 in - East 6.9 mph - N/A   Clear
8:00 AM 73.4 °F - 60.8 °F 65% 30.07 in - ESE 5.8 mph - N/A   Clear
9:00 AM 81 °F - 61 °F 40% 29.88 in 12 mi West 3.5 mph - -   Clear
9:00 AM 80.6 °F 81.5 °F 60.8 °F 51% 30.07 in - West 3.5 mph - N/A   Clear
10:00 AM 82.4 °F 83.9 °F 64.4 °F 54% 30.07 in 6.2 mi WSW 4.6 mph - N/A   Mostly Cloudy
11:00 AM 84.2 °F 85.0 °F 62.6 °F 48% 30.04 in 6.2 mi SW 6.9 mph - N/A   Mostly Cloudy
12:00 PM 84 °F - 61 °F 35% 29.81 in 12 mi WSW 10.4 mph - -   Overcast
12:00 PM 84.2 °F 84.4 °F 60.8 °F 45% 30.01 in 6.2 mi WSW 10.4 mph - N/A   Mostly Cloudy
1:00 PM 86.0 °F 87.3 °F 64.4 °F 48% 29.97 in 6.2 mi SW 10.4 mph - N/A   Mostly Cloudy
2:00 PM 82.4 °F 85.4 °F 68.0 °F 62% 29.95 in 6.2 mi WSW 15.0 mph - N/A   Mostly Cloudy
3:00 PM 82 °F - 66 °F 50% 29.75 in 9 mi WNW 10.4 mph - -   Overcast
3:00 PM 82.4 °F 84.6 °F 66.2 °F 58% 29.93 in 6.2 mi WNW 10.4 mph - N/A   Mostly Cloudy
4:00 PM 80.6 °F 83.2 °F 68.0 °F 65% 29.94 in 6.2 mi WSW 13.8 mph - N/A   Mostly Cloudy
5:00 PM 78.8 °F - 68.0 °F 69% 29.95 in 6.2 mi SW 10.4 mph - N/A   Scattered Clouds
6:00 PM 73 °F - 70 °F 87% 29.81 in 6 mi WSW 8.1 mph - -   Haze
6:00 PM 73.4 °F - 69.8 °F 88% 30.00 in 6.2 mi WSW 4.6 mph - N/A   Mostly Cloudy
7:00 PM 73.4 °F - 69.8 °F 88% 30.00 in 6.2 mi WSW 4.6 mph - N/A   Mostly Cloudy
8:00 PM 71.6 °F - 69.8 °F 94% 30.02 in 6.2 mi WSW 3.5 mph - N/A   Mostly Cloudy
9:00 PM 72 °F - 70 °F 91% 29.84 in 9 mi SW 3.5 mph - -   Mostly Cloudy
9:00 PM 71.6 °F - 69.8 °F 94% 30.03 in 6.2 mi WNW 3.5 mph - N/A   Scattered Clouds
10:00 PM 69.8 °F - 68.0 °F 94% 30.04 in 6.2 mi Calm Calm - N/A   Scattered Clouds
11:00 PM 69.8 °F - 69.8 °F 100% 30.03 in 3.1 mi SW 3.5 mph - N/A   Scattered Clouds